Location: Rounton
(54.4000°N, 1.3500°W)
Time: 02:39:34
(UTC+00:00)

Altair - Pass Details

Date: 30 November 2021
Orbit: 1501 x 1683 km, 47.2° (Epoch: 19 January)

Event Time Altitude Azimuth Distance (km) Brightness Sun altitude
Rises 16:58:23 0° 224° (SW) 4,739 11.5 -9.8°
Reaches altitude 10° 17:01:43 10° 217° (SW) 3,732 10.6 -10.3°
Maximum altitude 17:10:10 40° 153° (SSE) 2,119 8.2 -11.4°
Enters shadow 17:17:44 13° 90° (E) 3,457 8.8 -12.5°
